Location: San Ignacio Observatory
(34.9291°N, 104.9425°W)
Time: 06:56:58
(UTC-07:00)

Tiangong 2 - Visible Passes

Search period start: 17 December 2018 00:00
Search period end: 27 December 2018 00:00
Orbit: 383 x 391 km, 42.8° (Epoch: 17 December)

Date Brightness Start Highest point End Pass type
(mag) Time Alt. Az. Time Alt. Az. Time Alt. Az.
17 Dec 3.0 17:55:57 10° S 17:58:11 18° SE 17:59:02 16° ESE visible
18 Dec 1.5 18:32:49 10° SW 18:35:29 58° SSW 18:35:29 58° SSW visible
19 Dec 2.0 17:34:18 10° SW 17:37:13 36° SE 17:39:35 14° E visible
19 Dec 4.1 19:11:05 10° W 19:11:52 16° W 19:11:52 16° W visible
20 Dec 1.4 18:12:01 10° WSW 18:15:08 57° NNW 18:15:55 41° NNE visible
21 Dec 3.4 18:50:39 10° WNW 18:52:11 20° NW 18:52:11 20° NW visible
22 Dec 2.2 17:51:28 10° W 17:54:23 34° NNW 17:56:09 19° NE visible
23 Dec 3.0 18:30:13 10° WNW 18:32:21 20° NNW 18:32:21 20° NNW visible
24 Dec 2.7 17:31:00 10° WNW 17:33:40 24° NNW 17:36:16 10° NE visible
25 Dec 2.9 18:09:41 10° NW 18:12:02 19° N 18:12:28 18° N visible
26 Dec 3.6 18:47:49 10° NW 18:48:42 15° NNW 18:48:42 15° NNW visible
